PulseSat

PulseSat

MOLNIYA 1-32

Last updated on April 20, 2019, 3:02 a.m. UTC

1 08601U 76006A   19109.16144249  .00001634  00000-0  00000+0 0  9998
2 08601  62.2595 115.4582 7281308 274.2551  13.3947  1.99992743315893
UTC
Height (km)
Latitude
Longitude
Inclination
Orbital Period

Next 30 passes for location: Hong Kong

Rise time Rise Azimuth (degrees) Set time Set Azimuth (degrees) Duration Max altitude (degrees)

No matching passes for this satellites

PulseSat

PulseSat is the new satellites software and hardware trackering solution by Pulsely.
Satellite Two Line Element Set source: US Air Force Space Command

Download PulseSat for iOS
© 2017 Pulsely Limited